TimeEST,TemperatureF,Dew PointF,Humidity,Sea Level PressureIn,VisibilityMPH,Wind Direction,Wind SpeedMPH,Gust SpeedMPH,PrecipitationIn,Events,Conditions,WindDirDegrees,DateUTC
12:52 AM,37.0,21.9,54,30.05,10.0,SE,6.9,-,N/A,,Clear,130,2012-11-06 05:52:00
1:52 AM,37.0,21.9,54,30.03,10.0,SE,8.1,16.1,N/A,,Clear,130,2012-11-06 06:52:00
3:52 AM,36.0,24.1,62,30.02,10.0,SE,12.7,18.4,N/A,,Clear,140,2012-11-06 08:52:00
4:52 AM,34.0,24.1,67,30.03,10.0,ESE,10.4,17.3,N/A,,Clear,120,2012-11-06 09:52:00
5:52 AM,34.0,23.0,64,30.04,10.0,SSE,9.2,16.1,N/A,,Clear,150,2012-11-06 10:52:00
6:52 AM,33.1,23.0,66,30.05,10.0,SSE,8.1,16.1,N/A,,Clear,150,2012-11-06 11:52:00
7:52 AM,33.1,23.0,66,30.07,10.0,SE,11.5,23.0,N/A,,Clear,140,2012-11-06 12:52:00
8:52 AM,34.0,24.1,67,30.07,10.0,SSE,13.8,19.6,N/A,,Clear,160,2012-11-06 13:52:00
9:52 AM,36.0,24.1,62,30.06,10.0,SE,6.9,-,N/A,,Clear,140,2012-11-06 14:52:00
10:52 AM,37.0,25.0,62,30.06,10.0,SSE,9.2,-,N/A,,Clear,150,2012-11-06 15:52:00
11:52 AM,39.0,25.0,57,30.03,10.0,SE,6.9,-,N/A,,Clear,140,2012-11-06 16:52:00
12:52 PM,41.0,26.1,55,29.99,10.0,SSE,6.9,-,N/A,,Clear,150,2012-11-06 17:52:00
1:52 PM,42.1,26.1,53,29.98,10.0,Variable,3.5,-,N/A,,Clear,0,2012-11-06 18:52:00
2:52 PM,42.1,26.1,53,29.96,10.0,Calm,Calm,-,N/A,,Clear,0,2012-11-06 19:52:00
3:52 PM,41.0,26.1,55,29.95,10.0,SE,3.5,-,N/A,,Clear,130,2012-11-06 20:52:00
4:52 PM,39.9,26.1,58,29.95,10.0,Variable,3.5,-,N/A,,Clear,0,2012-11-06 21:52:00
5:52 PM,37.9,26.1,62,29.95,10.0,ESE,3.5,-,N/A,,Overcast,110,2012-11-06 22:52:00
6:52 PM,37.0,26.1,65,29.98,10.0,ESE,3.5,-,N/A,,Mostly Cloudy,120,2012-11-06 23:52:00
7:52 PM,35.1,26.1,70,29.97,10.0,ESE,4.6,-,N/A,,Clear,110,2012-11-07 00:52:00
8:52 PM,34.0,26.1,73,29.97,10.0,Calm,Calm,-,N/A,,Clear,0,2012-11-07 01:52:00
9:52 PM,33.1,26.1,75,29.95,10.0,East,3.5,-,N/A,,Clear,100,2012-11-07 02:52:00
10:52 PM,32.0,25.0,75,29.94,10.0,North,3.5,-,N/A,,Clear,350,2012-11-07 03:52:00
11:52 PM,30.9,25.0,79,29.93,10.0,ESE,4.6,-,N/A,,Clear,110,2012-11-07 04:52:00